• In Kazakhstan
  • List of Countries
  • For 7 days
  • Water Temperature
  • Satellite Maps
  • Weather Map
  • News
  • Weather Widgets
  • user-avatar
    Login

    Hourly Weather Nogowczyce

    Today, 20 February, Wednesday

    Time Temperature Precipitation Wind Pressure Humidity
    00:00 +4°C° 0 mm 3 mps 740 mmHg 86%
    01:00 +3°C° 0 mm 3 mps 740 mmHg 87%
    02:00 +3°C° 0 mm 3 mps 740 mmHg 86%
    03:00 +3°C° 0 mm 3 mps 740 mmHg 86%
    04:00 +2°C° 0 mm 3 mps 741 mmHg 85%
    05:00 +2°C° 0 mm 3 mps 741 mmHg 86%
    06:00 +2°C° 0 mm 3 mps 741 mmHg 86%
    07:00 +1°C° 0 mm 3 mps 741 mmHg 86%
    08:00 +3°C° 0 mm 4 mps 741 mmHg 81%
    09:00 +4°C° 0 mm 4 mps 742 mmHg 75%
    10:00 +5°C° 0 mm 5 mps 742 mmHg 69%
    11:00 +5°C° 0 mm 5 mps 742 mmHg 66%
    12:00 +6°C° 0 mm 5 mps 743 mmHg 63%
    13:00 +6°C° 0 mm 5 mps 743 mmHg 61%
    14:00 +6°C° 0.1 mm 5 mps 743 mmHg 62%
    15:00 +6°C° 0.1 mm 5 mps 743 mmHg 63%
    16:00 +6°C° 0.1 mm 4 mps 743 mmHg 63%
    17:00 +5°C° 0.1 mm 4 mps 743 mmHg 67%
    18:00 +5°C° 0.1 mm 3 mps 744 mmHg 70%
    19:00 +5°C° 0.1 mm 2 mps 744 mmHg 73%
    20:00 +5°C° 0 mm 2 mps 744 mmHg 76%
    21:00 +5°C° 0 mm 2 mps 744 mmHg 78%
    22:00 +5°C° 0 mm 2 mps 745 mmHg 80%
    23:00 +4°C° 0 mm 2 mps 745 mmHg 81%

    Tomorrow, 21 February, Thursday

    Time Temperature Precipitation Wind Pressure Humidity
    00:00 +4°C° 0 mm 2 mps 745 mmHg 82%
    01:00 +4°C° 0 mm 2 mps 745 mmHg 83%
    02:00 +4°C° 0 mm 2 mps 745 mmHg 82%
    03:00 +3°C° 0 mm 2 mps 745 mmHg 82%
    04:00 +3°C° 0 mm 2 mps 745 mmHg 82%
    05:00 +3°C° 0 mm 2 mps 745 mmHg 82%
    06:00 +3°C° 0 mm 2 mps 745 mmHg 82%
    07:00 +2°C° 0 mm 2 mps 745 mmHg 82%
    08:00 +4°C° 0 mm 2 mps 745 mmHg 78%
    09:00 +4°C° 0 mm 3 mps 745 mmHg 73%
    10:00 +5°C° 0 mm 3 mps 745 mmHg 69%
    11:00 +5°C° 0.3 mm 3 mps 744 mmHg 69%
    12:00 +6°C° 0.3 mm 4 mps 744 mmHg 69%
    13:00 +6°C° 0.3 mm 4 mps 744 mmHg 69%
    14:00 +6°C° 0.3 mm 4 mps 743 mmHg 71%
    15:00 +7°C° 0.3 mm 3 mps 743 mmHg 73%
    16:00 +5°C° 0.3 mm 3 mps 743 mmHg 75%
    17:00 +5°C° 0.3 mm 3 mps 743 mmHg 77%
    18:00 +5°C° 0.3 mm 4 mps 743 mmHg 78%
    19:00 +5°C° 0.3 mm 4 mps 743 mmHg 80%
    20:00 +5°C° 0.5 mm 4 mps 743 mmHg 83%
    21:00 +5°C° 0.5 mm 5 mps 743 mmHg 85%
    22:00 +5°C° 0.5 mm 5 mps 743 mmHg 88%
    23:00 +6°C° 0.5 mm 5 mps 743 mmHg 88%

    Day after tomorrow, 22 February, Friday

    Time Temperature Precipitation Wind Pressure Humidity
    00:00 +5°C° 0.5 mm 6 mps 743 mmHg 89%
    01:00 +5°C° 0.5 mm 6 mps 743 mmHg 89%
    02:00 +5°C° 0.2 mm 6 mps 743 mmHg 88%
    03:00 +5°C° 0.2 mm 6 mps 742 mmHg 87%
    04:00 +5°C° 0.2 mm 7 mps 742 mmHg 86%
    05:00 +4°C° 0.3 mm 7 mps 743 mmHg 86%
    06:00 +4°C° 0.3 mm 7 mps 744 mmHg 85%
    07:00 +4°C° 0.3 mm 7 mps 744 mmHg 85%
    08:00 +3°C° 0.1 mm 6 mps 745 mmHg 81%
    09:00 +1°C° 0.1 mm 6 mps 746 mmHg 77%
    10:00 -1°C° 0.1 mm 6 mps 747 mmHg 73%
    11:00 0°C° 0 mm 5 mps 748 mmHg 67%
    12:00 +1°C° 0 mm 5 mps 749 mmHg 61%
    13:00 +1°C° 0 mm 5 mps 750 mmHg 54%
    14:00 +1°C° 0 mm 5 mps 750 mmHg 53%
    15:00 0°C° 0 mm 5 mps 751 mmHg 51%
    16:00 0°C° 0 mm 5 mps 751 mmHg 49%
    17:00 -1°C° 0 mm 5 mps 752 mmHg 52%
    18:00 -2°C° 0 mm 4 mps 752 mmHg 54%
    19:00 -3°C° 0 mm 4 mps 753 mmHg 56%
    20:00 -3°C° 0 mm 4 mps 754 mmHg 55%
    21:00 -4°C° 0 mm 4 mps 754 mmHg 54%
    22:00 -4°C° 0 mm 4 mps 755 mmHg 53%
    23:00 -4°C° 0 mm 3 mps 755 mmHg 51%

    23 February, Saturday

    Time Temperature Precipitation Wind Pressure Humidity
    00:00 -4°C° 0 mm 3 mps 756 mmHg 49%
    01:00 -4°C° 0 mm 3 mps 756 mmHg 47%
    02:00 -5°C° 0 mm 3 mps 756 mmHg 45%
    03:00 -4°C° 0 mm 2 mps 756 mmHg 44%
    04:00 -4°C° 0 mm 2 mps 756 mmHg 42%
    05:00 -4°C° 0 mm 2 mps 756 mmHg 41%
    06:00 -4°C° 0 mm 2 mps 757 mmHg 40%
    07:00 -2°C° 0 mm 1 mps 757 mmHg 39%
    08:00 -1°C° 0 mm 1 mps 757 mmHg 36%
    09:00 -1°C° 0 mm 1 mps 757 mmHg 33%
    10:00 0°C° 0 mm 1 mps 757 mmHg 30%
    11:00 +1°C° 0 mm 1 mps 757 mmHg 28%
    12:00 +2°C° 0 mm 1 mps 757 mmHg 26%
    13:00 +2°C° 0 mm 1 mps 757 mmHg 24%
    14:00 +2°C° 0 mm 1 mps 756 mmHg 25%
    15:00 +2°C° 0 mm 1 mps 756 mmHg 27%
    16:00 +1°C° 0 mm 0 mps 756 mmHg 28%
    17:00 0°C° 0 mm 0 mps 756 mmHg 31%
    18:00 -1°C° 0 mm 0 mps 756 mmHg 33%
    19:00 -1°C° 0 mm 0 mps 756 mmHg 36%
    20:00 0°C° 0 mm 1 mps 756 mmHg 36%
    21:00 -1°C° 0 mm 1 mps 756 mmHg 37%
    22:00 -1°C° 0 mm 1 mps 756 mmHg 37%
    23:00 -1°C° 0 mm 1 mps 755 mmHg 37%

    24 February, Sunday

    Time Temperature Precipitation Wind Pressure Humidity
    00:00 -1°C° 0 mm 1 mps 755 mmHg 37%
    01:00 -1°C° 0 mm 1 mps 755 mmHg 37%
    02:00 -1°C° 0 mm 1 mps 755 mmHg 36%
    03:00 -1°C° 0 mm 1 mps 755 mmHg 35%
    04:00 0°C° 0 mm 1 mps 754 mmHg 34%
    05:00 0°C° 0 mm 1 mps 754 mmHg 33%
    06:00 0°C° 0 mm 1 mps 754 mmHg 32%
    07:00 +1°C° 0 mm 1 mps 754 mmHg 31%
    08:00 +2°C° 0 mm 1 mps 754 mmHg 30%
    09:00 +3°C° 0 mm 1 mps 753 mmHg 29%
    10:00 +3°C° 0 mm 2 mps 753 mmHg 28%
    11:00 +4°C° 0 mm 2 mps 753 mmHg 29%
    12:00 +5°C° 0 mm 2 mps 752 mmHg 30%
    13:00 +5°C° 0 mm 3 mps 752 mmHg 31%
    14:00 +6°C° 0 mm 2 mps 752 mmHg 35%
    15:00 +6°C° 0 mm 2 mps 751 mmHg 39%
    16:00 +5°C° 0 mm 2 mps 751 mmHg 43%
    17:00 +4°C° 0 mm 2 mps 751 mmHg 48%
    18:00 +4°C° 0 mm 1 mps 751 mmHg 52%
    19:00 +3°C° 0 mm 1 mps 751 mmHg 57%
    20:00 +3°C° 0 mm 1 mps 751 mmHg 58%
    21:00 +2°C° 0 mm 1 mps 751 mmHg 60%
    22:00 +2°C° 0 mm 1 mps 751 mmHg 62%
    23:00 +2°C° 0 mm 1 mps 751 mmHg 62%

    25 February, Monday

    Time Temperature Precipitation Wind Pressure Humidity
    00:00 +2°C° 0 mm 1 mps 751 mmHg 62%
    01:00 +2°C° 0 mm 1 mps 751 mmHg 63%
    02:00 +2°C° 0 mm 1 mps 751 mmHg 64%
    03:00 +2°C° 0 mm 1 mps 751 mmHg 64%
    04:00 +2°C° 0 mm 1 mps 750 mmHg 65%
    05:00 +2°C° 0 mm 1 mps 750 mmHg 67%
    06:00 +2°C° 0 mm 1 mps 750 mmHg 69%
    07:00 +1°C° 0 mm 2 mps 750 mmHg 70%
    08:00 +2°C° 0 mm 2 mps 751 mmHg 67%
    09:00 +3°C° 0 mm 2 mps 751 mmHg 64%
    10:00 +4°C° 0 mm 2 mps 751 mmHg 60%
    11:00 +6°C° 0 mm 2 mps 751 mmHg 58%
    12:00 +7°C° 0 mm 3 mps 750 mmHg 56%
    13:00 +8°C° 0 mm 3 mps 750 mmHg 54%
    14:00 +8°C° 0 mm 3 mps 750 mmHg 56%
    15:00 +8°C° 0 mm 3 mps 750 mmHg 58%
    16:00 +7°C° 0 mm 4 mps 750 mmHg 60%
    17:00 +7°C° 0 mm 3 mps 750 mmHg 68%
    18:00 +4°C° 0 mm 3 mps 750 mmHg 75%
    19:00 +4°C° 0 mm 2 mps 751 mmHg 82%
    20:00 +4°C° 0 mm 2 mps 751 mmHg 86%
    21:00 +3°C° 0 mm 2 mps 751 mmHg 90%
    22:00 +3°C° 0 mm 2 mps 751 mmHg 93%
    23:00 +2°C° 0 mm 2 mps 751 mmHg 94%
    Show more